#datetime,building,power
2022-10-12T00:01:00,pth,3.60
2022-10-12T00:03:00,pth,2.40
2022-10-12T00:05:00,pth,2.40
2022-10-12T00:07:00,pth,2.40
2022-10-12T00:08:00,pth,1.20
2022-10-12T00:10:00,pth,3.60
2022-10-12T00:12:00,pth,2.40
2022-10-12T00:13:00,pth,1.20
2022-10-12T00:15:00,pth,2.40
2022-10-12T00:17:00,pth,2.40
2022-10-12T00:18:00,pth,1.20
2022-10-12T00:19:00,pth,1.20
2022-10-12T00:21:00,pth,2.40
2022-10-12T00:23:00,pth,2.40
2022-10-12T00:24:00,pth,1.20
2022-10-12T00:26:00,pth,2.40
2022-10-12T00:28:00,pth,2.40
2022-10-12T00:30:00,pth,2.40
2022-10-12T00:32:00,pth,2.40
2022-10-12T00:33:00,pth,1.20
2022-10-12T00:34:00,pth,1.20
2022-10-12T00:36:00,pth,2.40
2022-10-12T00:37:00,pth,1.20
2022-10-12T00:39:00,pth,2.40
2022-10-12T00:41:00,pth,2.40
2022-10-12T00:43:00,pth,1.20
2022-10-12T00:45:00,pth,2.40
2022-10-12T00:47:00,pth,2.40
2022-10-12T00:49:00,pth,1.20
2022-10-12T00:50:00,pth,1.20
2022-10-12T00:52:00,pth,2.40
2022-10-12T00:54:00,pth,1.20
2022-10-12T00:56:00,pth,2.40
2022-10-12T00:58:00,pth,2.40
2022-10-12T00:59:00,pth,1.20
2022-10-12T01:01:00,pth,2.40
2022-10-12T01:03:00,pth,1.20
2022-10-12T01:05:00,pth,2.40
2022-10-12T01:07:00,pth,2.40
2022-10-12T01:09:00,pth,3.60
2022-10-12T01:10:00,pth,1.20
2022-10-12T01:12:00,pth,2.40
2022-10-12T01:14:00,pth,1.20
2022-10-12T01:16:00,pth,2.40
2022-10-12T01:18:00,pth,2.40
2022-10-12T01:20:00,pth,2.40
2022-10-12T01:22:00,pth,2.40
2022-10-12T01:24:00,pth,2.40
2022-10-12T01:26:00,pth,1.20
2022-10-12T01:27:00,pth,1.20
2022-10-12T01:29:00,pth,2.40
2022-10-12T01:31:00,pth,2.40
2022-10-12T01:33:00,pth,2.40
2022-10-12T01:35:00,pth,2.40
2022-10-12T01:37:00,pth,2.40
2022-10-12T01:39:00,pth,2.40
2022-10-12T01:41:00,pth,2.40
2022-10-12T01:42:00,pth,1.20
2022-10-12T01:44:00,pth,2.40
2022-10-12T01:46:00,pth,2.40
2022-10-12T01:47:00,pth,1.20
2022-10-12T01:49:00,pth,2.40
2022-10-12T01:51:00,pth,2.40
2022-10-12T01:53:00,pth,2.40
2022-10-12T01:54:00,pth,1.20
2022-10-12T01:56:00,pth,2.40
2022-10-12T01:58:00,pth,2.40
2022-10-12T02:01:00,pth,2.40
2022-10-12T02:02:00,pth,1.20
2022-10-12T02:04:00,pth,2.40
2022-10-12T02:06:00,pth,1.20
2022-10-12T02:08:00,pth,2.40
2022-10-12T02:10:00,pth,2.40
2022-10-12T02:12:00,pth,2.40
2022-10-12T02:13:00,pth,1.20
2022-10-12T02:15:00,pth,1.20
2022-10-12T02:17:00,pth,2.40
2022-10-12T02:18:00,pth,1.20
2022-10-12T02:20:00,pth,1.20
2022-10-12T02:22:00,pth,2.40
2022-10-12T02:24:00,pth,2.40
2022-10-12T02:25:00,pth,1.20
2022-10-12T02:26:00,pth,1.20
2022-10-12T02:28:00,pth,2.40
2022-10-12T02:30:00,pth,1.20
2022-10-12T02:31:00,pth,1.20
2022-10-12T02:34:00,pth,2.40
2022-10-12T02:35:00,pth,2.40
2022-10-12T02:36:00,pth,1.20
2022-10-12T02:38:00,pth,1.20
2022-10-12T02:40:00,pth,3.60
2022-10-12T02:42:00,pth,1.20
2022-10-12T02:43:00,pth,1.20
2022-10-12T02:45:00,pth,2.40
2022-10-12T02:46:00,pth,1.20
2022-10-12T02:47:00,pth,1.20
2022-10-12T02:49:00,pth,2.40
2022-10-12T02:51:00,pth,2.40
2022-10-12T02:53:00,pth,2.40
2022-10-12T02:55:00,pth,2.40
2022-10-12T02:57:00,pth,2.40
2022-10-12T02:59:00,pth,2.40
2022-10-12T03:01:00,pth,1.20
2022-10-12T03:02:00,pth,1.20
2022-10-12T03:03:00,pth,1.20
2022-10-12T03:04:00,pth,2.40
2022-10-12T03:06:00,pth,2.40
2022-10-12T03:08:00,pth,1.20
2022-10-12T03:10:00,pth,2.40
2022-10-12T03:11:00,pth,1.20
2022-10-12T03:13:00,pth,2.40
2022-10-12T03:15:00,pth,1.20
2022-10-12T03:16:00,pth,1.20
2022-10-12T03:18:00,pth,2.40
2022-10-12T03:19:00,pth,1.20
2022-10-12T03:21:00,pth,2.40
2022-10-12T03:23:00,pth,2.40
2022-10-12T03:25:00,pth,1.20
2022-10-12T03:26:00,pth,1.20
2022-10-12T03:28:00,pth,2.40
2022-10-12T03:30:00,pth,1.20
2022-10-12T03:31:00,pth,1.20
2022-10-12T03:33:00,pth,2.40
2022-10-12T03:35:00,pth,2.40
2022-10-12T03:36:00,pth,1.20
2022-10-12T03:38:00,pth,2.40
2022-10-12T03:40:00,pth,1.20
2022-10-12T03:41:00,pth,1.20
2022-10-12T03:43:00,pth,2.40
2022-10-12T03:45:00,pth,2.40
2022-10-12T03:47:00,pth,1.20
2022-10-12T03:49:00,pth,2.40
2022-10-12T03:50:00,pth,1.20
2022-10-12T03:52:00,pth,2.40
2022-10-12T03:53:00,pth,1.20
2022-10-12T03:55:00,pth,2.40
2022-10-12T03:57:00,pth,2.40
2022-10-12T03:58:00,pth,1.20
2022-10-12T04:00:00,pth,1.20
2022-10-12T04:02:00,pth,2.40
2022-10-12T04:04:00,pth,2.40
2022-10-12T04:06:00,pth,2.40
2022-10-12T04:08:00,pth,2.40
2022-10-12T04:10:00,pth,2.40
2022-10-12T04:12:00,pth,2.40
2022-10-12T04:13:00,pth,1.20
2022-10-12T04:15:00,pth,1.20
2022-10-12T04:16:00,pth,1.20
2022-10-12T04:18:00,pth,2.40
2022-10-12T04:20:00,pth,2.40
2022-10-12T04:22:00,pth,2.40
2022-10-12T04:23:00,pth,1.20
2022-10-12T04:25:00,pth,2.40
2022-10-12T04:27:00,pth,2.40
2022-10-12T04:29:00,pth,2.40
2022-10-12T04:31:00,pth,2.40
2022-10-12T04:33:00,pth,2.40
2022-10-12T04:34:00,pth,1.20
2022-10-12T04:36:00,pth,1.20
2022-10-12T04:38:00,pth,2.40
2022-10-12T04:39:00,pth,1.20
2022-10-12T04:41:00,pth,2.40
2022-10-12T04:43:00,pth,2.40
2022-10-12T04:45:00,pth,2.40
2022-10-12T04:47:00,pth,2.40
2022-10-12T04:50:00,pth,2.40
2022-10-12T04:52:00,pth,2.40
2022-10-12T04:54:00,pth,1.20
2022-10-12T04:56:00,pth,2.40
2022-10-12T04:58:00,pth,2.40
2022-10-12T04:59:00,pth,1.20
2022-10-12T05:01:00,pth,2.40
2022-10-12T05:02:00,pth,1.20
2022-10-12T05:04:00,pth,2.40
2022-10-12T05:07:00,pth,2.40
2022-10-12T05:09:00,pth,2.40
2022-10-12T05:10:00,pth,1.20
2022-10-12T05:12:00,pth,2.40
2022-10-12T05:15:00,pth,2.40
2022-10-12T05:17:00,pth,2.40
2022-10-12T05:19:00,pth,2.40
2022-10-12T05:20:00,pth,1.20
2022-10-12T05:22:00,pth,2.40
2022-10-12T05:25:00,pth,2.40
2022-10-12T05:27:00,pth,2.40
2022-10-12T05:29:00,pth,1.20
2022-10-12T05:30:00,pth,1.20
2022-10-12T05:32:00,pth,2.40
2022-10-12T05:34:00,pth,2.40
2022-10-12T05:36:00,pth,1.20
2022-10-12T05:38:00,pth,2.40
2022-10-12T05:40:00,pth,2.40
2022-10-12T05:42:00,pth,2.40
2022-10-12T05:44:00,pth,2.40
2022-10-12T05:46:00,pth,1.20
2022-10-12T05:48:00,pth,2.40
2022-10-12T05:50:00,pth,2.40
2022-10-12T05:52:00,pth,2.40
2022-10-12T05:53:00,pth,1.20
2022-10-12T05:55:00,pth,1.20
2022-10-12T05:57:00,pth,2.40
2022-10-12T05:59:00,pth,2.40
2022-10-12T06:01:00,pth,2.40
2022-10-12T06:03:00,pth,2.40
2022-10-12T06:05:00,pth,2.40
2022-10-12T06:07:00,pth,2.40
2022-10-12T06:10:00,pth,2.40
2022-10-12T06:12:00,pth,2.40
2022-10-12T06:13:00,pth,1.20
2022-10-12T06:14:00,pth,2.40
2022-10-12T06:17:00,pth,1.20
2022-10-12T06:18:00,pth,2.40
2022-10-12T06:19:00,pth,1.20
2022-10-12T06:21:00,pth,2.40
2022-10-12T06:22:00,pth,1.20
2022-10-12T06:23:00,pth,1.20
2022-10-12T06:25:00,pth,2.40
2022-10-12T06:27:00,pth,1.20
2022-10-12T06:28:00,pth,1.20
2022-10-12T06:30:00,pth,2.40
2022-10-12T06:32:00,pth,2.40
2022-10-12T06:34:00,pth,1.20
2022-10-12T06:35:00,pth,1.20
2022-10-12T06:36:00,pth,1.20
2022-10-12T06:38:00,pth,1.20
2022-10-12T06:40:00,pth,2.40
2022-10-12T06:41:00,pth,1.20
2022-10-12T06:43:00,pth,1.20
2022-10-12T06:45:00,pth,2.40
2022-10-12T06:47:00,pth,2.40
2022-10-12T06:49:00,pth,2.40
2022-10-12T06:50:00,pth,1.20
2022-10-12T06:52:00,pth,2.40
2022-10-12T06:54:00,pth,2.40
2022-10-12T06:56:00,pth,1.20
2022-10-12T06:58:00,pth,2.40
2022-10-12T06:59:00,pth,1.20
2022-10-12T07:01:00,pth,2.40
2022-10-12T07:03:00,pth,2.40
2022-10-12T07:05:00,pth,1.20
2022-10-12T07:07:00,pth,2.40
2022-10-12T07:09:00,pth,1.20
2022-10-12T07:10:00,pth,1.20
2022-10-12T07:12:00,pth,2.40
2022-10-12T07:13:00,pth,1.20
2022-10-12T07:15:00,pth,2.40
2022-10-12T07:16:00,pth,1.20
2022-10-12T07:18:00,pth,3.60
2022-10-12T07:20:00,pth,2.40
2022-10-12T07:21:00,pth,2.40
2022-10-12T07:23:00,pth,2.40
2022-10-12T07:25:00,pth,1.20
2022-10-12T07:27:00,pth,2.40
2022-10-12T07:29:00,pth,2.40
2022-10-12T07:31:00,pth,2.40
2022-10-12T07:34:00,pth,2.40
2022-10-12T07:35:00,pth,2.40
2022-10-12T07:36:00,pth,1.20
2022-10-12T07:38:00,pth,2.40
2022-10-12T07:39:00,pth,1.20
2022-10-12T07:41:00,pth,1.20
2022-10-12T07:42:00,pth,1.20
2022-10-12T07:44:00,pth,1.20
2022-10-12T07:46:00,pth,2.40
2022-10-12T07:49:00,pth,2.40
2022-10-12T07:51:00,pth,2.40
2022-10-12T07:53:00,pth,1.20
2022-10-12T07:55:00,pth,2.40
2022-10-12T07:56:00,pth,1.20
2022-10-12T07:58:00,pth,2.40
2022-10-12T08:01:00,pth,2.40
2022-10-12T08:03:00,pth,1.20
2022-10-12T08:05:00,pth,2.40
2022-10-12T08:07:00,pth,1.20
2022-10-12T08:09:00,pth,2.40
2022-10-12T08:11:00,pth,2.40
2022-10-12T08:14:00,pth,2.40
2022-10-12T08:16:00,pth,1.20
2022-10-12T08:18:00,pth,1.20
2022-10-12T08:20:00,pth,2.40
2022-10-12T08:22:00,pth,1.20
2022-10-12T08:25:00,pth,2.40
2022-10-12T08:28:00,pth,2.40
2022-10-12T08:31:00,pth,2.40
2022-10-12T08:34:00,pth,2.40
2022-10-12T08:36:00,pth,1.20
2022-10-12T08:38:00,pth,1.20
2022-10-12T08:40:00,pth,1.20
2022-10-12T08:42:00,pth,1.20
2022-10-12T08:44:00,pth,2.40
2022-10-12T08:46:00,pth,1.20
2022-10-12T08:47:00,pth,1.20
2022-10-12T08:48:00,pth,1.20
2022-10-12T08:50:00,pth,2.40
2022-10-12T08:52:00,pth,1.20
2022-10-12T08:54:00,pth,2.40
2022-10-12T08:56:00,pth,2.40
2022-10-12T08:59:00,pth,2.40
2022-10-12T09:01:00,pth,2.40
2022-10-12T09:03:00,pth,1.20
2022-10-12T09:04:00,pth,1.20
2022-10-12T09:06:00,pth,1.20
2022-10-12T09:08:00,pth,1.20
2022-10-12T09:10:00,pth,1.20
2022-10-12T09:12:00,pth,2.40
2022-10-12T09:14:00,pth,1.20
2022-10-12T09:17:00,pth,1.20
2022-10-12T09:19:00,pth,1.20
2022-10-12T09:21:00,pth,1.20
2022-10-12T09:22:00,pth,1.20
2022-10-12T09:24:00,pth,1.20
2022-10-12T09:25:00,pth,1.20
2022-10-12T09:27:00,pth,1.20
2022-10-12T09:29:00,pth,1.20
2022-10-12T09:31:00,pth,1.20
2022-10-12T09:32:00,pth,1.20
2022-10-12T09:34:00,pth,1.20
2022-10-12T09:36:00,pth,1.20
2022-10-12T09:38:00,pth,1.20
2022-10-12T09:39:00,pth,1.20
2022-10-12T09:41:00,pth,1.20
2022-10-12T09:44:00,pth,1.20
2022-10-12T09:46:00,pth,2.40
2022-10-12T09:49:00,pth,1.20
2022-10-12T09:50:00,pth,1.20
2022-10-12T09:52:00,pth,1.20
2022-10-12T09:54:00,pth,1.20
2022-10-12T09:56:00,pth,1.20
2022-10-12T09:58:00,pth,1.20
2022-10-12T10:00:00,pth,1.20
2022-10-12T10:02:00,pth,1.20
2022-10-12T10:04:00,pth,2.40
2022-10-12T10:06:00,pth,1.20
2022-10-12T10:07:00,pth,1.20
2022-10-12T10:09:00,pth,1.20
2022-10-12T10:11:00,pth,1.20
2022-10-12T10:13:00,pth,1.20
2022-10-12T10:15:00,pth,2.40
2022-10-12T10:17:00,pth,1.20
2022-10-12T10:19:00,pth,2.40
2022-10-12T10:20:00,pth,1.20
2022-10-12T10:22:00,pth,1.20
2022-10-12T10:24:00,pth,1.20
2022-10-12T10:26:00,pth,1.20
2022-10-12T10:28:00,pth,2.40
2022-10-12T10:30:00,pth,1.20
2022-10-12T10:33:00,pth,1.20
2022-10-12T10:35:00,pth,2.40
2022-10-12T10:37:00,pth,1.20
2022-10-12T10:40:00,pth,2.40
2022-10-12T10:42:00,pth,1.20
2022-10-12T10:43:00,pth,1.20
2022-10-12T10:44:00,pth,1.20
2022-10-12T10:47:00,pth,2.40
2022-10-12T10:49:00,pth,1.20
2022-10-12T10:50:00,pth,1.20
2022-10-12T10:52:00,pth,1.20
2022-10-12T10:54:00,pth,1.20
2022-10-12T10:56:00,pth,2.40
2022-10-12T10:58:00,pth,1.20
2022-10-12T11:00:00,pth,1.20
2022-10-12T11:02:00,pth,1.20
2022-10-12T11:03:00,pth,1.20
2022-10-12T11:05:00,pth,1.20
2022-10-12T11:06:00,pth,1.20
2022-10-12T11:08:00,pth,1.20
2022-10-12T11:10:00,pth,1.20
2022-10-12T11:11:00,pth,1.20
2022-10-12T11:13:00,pth,1.20
2022-10-12T11:16:00,pth,2.40
2022-10-12T11:17:00,pth,1.20
2022-10-12T11:19:00,pth,2.40
2022-10-12T11:20:00,pth,1.20
2022-10-12T11:21:00,pth,2.40
2022-10-12T11:23:00,pth,1.20
2022-10-12T11:24:00,pth,1.20
2022-10-12T11:25:00,pth,1.20
2022-10-12T11:27:00,pth,2.40
2022-10-12T11:30:00,pth,2.40
2022-10-12T11:32:00,pth,1.20
2022-10-12T11:34:00,pth,1.20
2022-10-12T11:36:00,pth,2.40
2022-10-12T11:38:00,pth,1.20
2022-10-12T11:40:00,pth,1.20
2022-10-12T11:42:00,pth,1.20
2022-10-12T11:44:00,pth,1.20
2022-10-12T11:46:00,pth,2.40
2022-10-12T11:48:00,pth,1.20
2022-10-12T11:49:00,pth,1.20
2022-10-12T11:51:00,pth,2.40
2022-10-12T11:53:00,pth,2.40
2022-10-12T11:55:00,pth,2.40
2022-10-12T11:57:00,pth,3.60
2022-10-12T11:58:00,pth,1.20
2022-10-12T12:00:00,pth,2.40
2022-10-12T12:02:00,pth,2.40
2022-10-12T12:04:00,pth,2.40
2022-10-12T12:06:00,pth,1.20
2022-10-12T12:08:00,pth,1.20
2022-10-12T12:10:00,pth,1.20
2022-10-12T12:11:00,pth,1.20
2022-10-12T12:13:00,pth,1.20
2022-10-12T12:14:00,pth,1.20
2022-10-12T12:16:00,pth,1.20
2022-10-12T12:18:00,pth,1.20
2022-10-12T12:20:00,pth,1.20
2022-10-12T12:22:00,pth,2.40
2022-10-12T12:24:00,pth,1.20
2022-10-12T12:25:00,pth,1.20
2022-10-12T12:27:00,pth,1.20
2022-10-12T12:29:00,pth,2.40
2022-10-12T12:30:00,pth,1.20
2022-10-12T12:31:00,pth,1.20
2022-10-12T12:32:00,pth,1.20
2022-10-12T12:34:00,pth,2.40
2022-10-12T12:37:00,pth,2.40
2022-10-12T12:39:00,pth,1.20
2022-10-12T12:41:00,pth,1.20
2022-10-12T12:43:00,pth,1.20
2022-10-12T12:44:00,pth,1.20
2022-10-12T12:46:00,pth,2.40
2022-10-12T12:48:00,pth,1.20
2022-10-12T12:50:00,pth,1.20
2022-10-12T12:51:00,pth,1.20
2022-10-12T12:52:00,pth,1.20
2022-10-12T12:54:00,pth,1.20
2022-10-12T12:56:00,pth,1.20
2022-10-12T12:58:00,pth,1.20
2022-10-12T13:00:00,pth,2.40
2022-10-12T13:02:00,pth,1.20
2022-10-12T13:03:00,pth,1.20
2022-10-12T13:05:00,pth,2.40
2022-10-12T13:07:00,pth,2.40
2022-10-12T13:10:00,pth,2.40
2022-10-12T13:12:00,pth,1.20
2022-10-12T13:14:00,pth,1.20
2022-10-12T13:17:00,pth,1.20
2022-10-12T13:18:00,pth,1.20
2022-10-12T13:20:00,pth,1.20
2022-10-12T13:22:00,pth,1.20
2022-10-12T13:23:00,pth,1.20
2022-10-12T13:26:00,pth,1.20
2022-10-12T13:28:00,pth,1.20
2022-10-12T13:29:00,pth,1.20
2022-10-12T13:31:00,pth,1.20
2022-10-12T13:32:00,pth,1.20
2022-10-12T13:34:00,pth,1.20
2022-10-12T13:37:00,pth,1.20
2022-10-12T13:39:00,pth,1.20
2022-10-12T13:41:00,pth,2.40
2022-10-12T13:43:00,pth,1.20
2022-10-12T13:44:00,pth,1.20
2022-10-12T13:46:00,pth,3.60
2022-10-12T13:48:00,pth,2.40
2022-10-12T13:50:00,pth,4.80
2022-10-12T13:52:00,pth,4.80
2022-10-12T13:54:00,pth,3.60
2022-10-12T13:56:00,pth,2.40
2022-10-12T13:58:00,pth,2.40
2022-10-12T14:00:00,pth,1.20
2022-10-12T14:02:00,pth,2.40
2022-10-12T14:03:00,pth,1.20
2022-10-12T14:05:00,pth,2.40
2022-10-12T14:08:00,pth,2.40
2022-10-12T14:10:00,pth,1.20
2022-10-12T14:12:00,pth,2.40
2022-10-12T14:14:00,pth,1.20
2022-10-12T14:17:00,pth,2.40
2022-10-12T14:19:00,pth,1.20
2022-10-12T14:21:00,pth,1.20
2022-10-12T14:23:00,pth,1.20
2022-10-12T14:25:00,pth,1.20
2022-10-12T14:27:00,pth,1.20
2022-10-12T14:29:00,pth,1.20
2022-10-12T14:31:00,pth,1.20
2022-10-12T14:32:00,pth,1.20
2022-10-12T14:34:00,pth,1.20
2022-10-12T14:35:00,pth,1.20
2022-10-12T14:37:00,pth,1.20
2022-10-12T14:39:00,pth,1.20
2022-10-12T14:41:00,pth,1.20
2022-10-12T14:43:00,pth,1.20
2022-10-12T14:45:00,pth,1.20
2022-10-12T14:46:00,pth,1.20
2022-10-12T14:48:00,pth,2.40
2022-10-12T14:50:00,pth,1.20
2022-10-12T14:52:00,pth,2.40
2022-10-12T14:54:00,pth,2.40
2022-10-12T14:56:00,pth,2.40
2022-10-12T14:58:00,pth,1.20
2022-10-12T14:59:00,pth,1.20
2022-10-12T15:01:00,pth,2.40
2022-10-12T15:03:00,pth,1.20
2022-10-12T15:04:00,pth,1.20
2022-10-12T15:06:00,pth,1.20
2022-10-12T15:08:00,pth,1.20
2022-10-12T15:09:00,pth,1.20
2022-10-12T15:11:00,pth,1.20
2022-10-12T15:13:00,pth,1.20
2022-10-12T15:14:00,pth,1.20
2022-10-12T15:16:00,pth,1.20
2022-10-12T15:18:00,pth,2.40
2022-10-12T15:21:00,pth,2.40
2022-10-12T15:23:00,pth,1.20
2022-10-12T15:24:00,pth,1.20
2022-10-12T15:26:00,pth,1.20
2022-10-12T15:29:00,pth,1.20
2022-10-12T15:30:00,pth,1.20
2022-10-12T15:32:00,pth,1.20
2022-10-12T15:34:00,pth,1.20
2022-10-12T15:36:00,pth,2.40
2022-10-12T15:38:00,pth,1.20
2022-10-12T15:40:00,pth,1.20
2022-10-12T15:42:00,pth,1.20
2022-10-12T15:44:00,pth,1.20
2022-10-12T15:45:00,pth,1.20
2022-10-12T15:47:00,pth,2.40
2022-10-12T15:49:00,pth,2.40
2022-10-12T15:51:00,pth,1.20
2022-10-12T15:53:00,pth,2.40
2022-10-12T15:55:00,pth,2.40
2022-10-12T15:57:00,pth,1.20
2022-10-12T15:59:00,pth,2.40
2022-10-12T16:01:00,pth,2.40
2022-10-12T16:03:00,pth,2.40
2022-10-12T16:05:00,pth,1.20
2022-10-12T16:06:00,pth,1.20
2022-10-12T16:08:00,pth,1.20
2022-10-12T16:09:00,pth,1.20
2022-10-12T16:11:00,pth,1.20
2022-10-12T16:13:00,pth,1.20
2022-10-12T16:15:00,pth,1.20
2022-10-12T16:16:00,pth,1.20
2022-10-12T16:18:00,pth,1.20
2022-10-12T16:20:00,pth,1.20
2022-10-12T16:22:00,pth,1.20
2022-10-12T16:23:00,pth,1.20
2022-10-12T16:25:00,pth,1.20
2022-10-12T16:27:00,pth,2.40
2022-10-12T16:29:00,pth,1.20
2022-10-12T16:30:00,pth,1.20
2022-10-12T16:32:00,pth,2.40
2022-10-12T16:35:00,pth,2.40
2022-10-12T16:37:00,pth,1.20
2022-10-12T16:39:00,pth,2.40
2022-10-12T16:41:00,pth,2.40
2022-10-12T16:43:00,pth,1.20
2022-10-12T16:45:00,pth,2.40
2022-10-12T16:47:00,pth,1.20
2022-10-12T16:49:00,pth,2.40
2022-10-12T16:51:00,pth,1.20
2022-10-12T16:53:00,pth,1.20
2022-10-12T16:54:00,pth,1.20
2022-10-12T16:56:00,pth,2.40
2022-10-12T16:58:00,pth,1.20
2022-10-12T17:00:00,pth,2.40
2022-10-12T17:02:00,pth,1.20
2022-10-12T17:03:00,pth,1.20
2022-10-12T17:05:00,pth,1.20
2022-10-12T17:08:00,pth,2.40
2022-10-12T17:11:00,pth,1.20
2022-10-12T17:12:00,pth,1.20
2022-10-12T17:14:00,pth,1.20
2022-10-12T17:16:00,pth,2.40
2022-10-12T17:18:00,pth,1.20
2022-10-12T17:20:00,pth,1.20
2022-10-12T17:21:00,pth,1.20
2022-10-12T17:23:00,pth,1.20
2022-10-12T17:25:00,pth,1.20
2022-10-12T17:27:00,pth,2.40
2022-10-12T17:29:00,pth,1.20
2022-10-12T17:32:00,pth,2.40
2022-10-12T17:34:00,pth,1.20
2022-10-12T17:37:00,pth,2.40
2022-10-12T17:40:00,pth,2.40
2022-10-12T17:42:00,pth,1.20
2022-10-12T17:44:00,pth,2.40
2022-10-12T17:46:00,pth,1.20
2022-10-12T17:48:00,pth,2.40
2022-10-12T17:50:00,pth,1.20
2022-10-12T17:52:00,pth,2.40
2022-10-12T17:54:00,pth,1.20
2022-10-12T17:56:00,pth,2.40
2022-10-12T17:58:00,pth,2.40
2022-10-12T18:01:00,pth,2.40
2022-10-12T18:03:00,pth,2.40
2022-10-12T18:05:00,pth,1.20
2022-10-12T18:06:00,pth,1.20
2022-10-12T18:08:00,pth,2.40
2022-10-12T18:10:00,pth,2.40
2022-10-12T18:12:00,pth,1.20
2022-10-12T18:13:00,pth,1.20
2022-10-12T18:15:00,pth,2.40
2022-10-12T18:16:00,pth,1.20
2022-10-12T18:18:00,pth,1.20
2022-10-12T18:20:00,pth,2.40
2022-10-12T18:22:00,pth,1.20
2022-10-12T18:24:00,pth,2.40
2022-10-12T18:26:00,pth,1.20
2022-10-12T18:28:00,pth,2.40
2022-10-12T18:30:00,pth,1.20
2022-10-12T18:32:00,pth,2.40
2022-10-12T18:33:00,pth,1.20
2022-10-12T18:35:00,pth,1.20
2022-10-12T18:37:00,pth,2.40
2022-10-12T18:38:00,pth,1.20
2022-10-12T18:40:00,pth,2.40
2022-10-12T18:41:00,pth,1.20
2022-10-12T18:42:00,pth,1.20
2022-10-12T18:44:00,pth,2.40
2022-10-12T18:45:00,pth,1.20
2022-10-12T18:47:00,pth,2.40
2022-10-12T18:49:00,pth,2.40
2022-10-12T18:51:00,pth,3.60
2022-10-12T18:53:00,pth,2.40
2022-10-12T18:55:00,pth,2.40
2022-10-12T18:57:00,pth,3.60
2022-10-12T18:58:00,pth,1.20
2022-10-12T18:59:00,pth,1.20
2022-10-12T19:01:00,pth,2.40
2022-10-12T19:03:00,pth,3.60
2022-10-12T19:05:00,pth,1.20
2022-10-12T19:07:00,pth,2.40
2022-10-12T19:08:00,pth,1.20
2022-10-12T19:10:00,pth,2.40
2022-10-12T19:12:00,pth,2.40
2022-10-12T19:14:00,pth,2.40
2022-10-12T19:16:00,pth,2.40
2022-10-12T19:18:00,pth,2.40
2022-10-12T19:19:00,pth,1.20
2022-10-12T19:21:00,pth,1.20
2022-10-12T19:23:00,pth,2.40
2022-10-12T19:25:00,pth,2.40
2022-10-12T19:27:00,pth,1.20
2022-10-12T19:28:00,pth,1.20
2022-10-12T19:30:00,pth,4.80
2022-10-12T19:32:00,pth,13.20
2022-10-12T19:33:00,pth,7.20
2022-10-12T19:34:00,pth,6.00
2022-10-12T19:35:00,pth,7.20
2022-10-12T19:37:00,pth,13.20
2022-10-12T19:38:00,pth,6.00
2022-10-12T19:40:00,pth,13.20
2022-10-12T19:41:00,pth,6.00
2022-10-12T19:43:00,pth,13.20
2022-10-12T19:44:00,pth,6.00
2022-10-12T19:46:00,pth,13.20
2022-10-12T19:48:00,pth,13.20
2022-10-12T19:50:00,pth,13.20
2022-10-12T19:52:00,pth,13.20
2022-10-12T19:53:00,pth,7.20
2022-10-12T19:55:00,pth,13.20
2022-10-12T19:57:00,pth,13.20
2022-10-12T19:59:00,pth,13.20
2022-10-12T20:01:00,pth,13.20
2022-10-12T20:03:00,pth,13.20
2022-10-12T20:05:00,pth,13.20
2022-10-12T20:06:00,pth,6.00
2022-10-12T20:08:00,pth,12.00
2022-10-12T20:09:00,pth,1.20
2022-10-12T20:10:00,pth,4.80
2022-10-12T20:12:00,pth,13.20
2022-10-12T20:13:00,pth,6.00
2022-10-12T20:15:00,pth,3.60
2022-10-12T20:16:00,pth,6.00
2022-10-12T20:18:00,pth,13.20
2022-10-12T20:20:00,pth,3.60
2022-10-12T20:22:00,pth,14.40
2022-10-12T20:23:00,pth,7.20
2022-10-12T20:24:00,pth,4.80
2022-10-12T20:26:00,pth,9.60
2022-10-12T20:27:00,pth,6.00
2022-10-12T20:29:00,pth,8.40
2022-10-12T20:31:00,pth,3.60
2022-10-12T20:32:00,pth,1.20
2022-10-12T20:34:00,pth,2.40
2022-10-12T20:36:00,pth,1.20
2022-10-12T20:37:00,pth,1.20
2022-10-12T20:39:00,pth,2.40
2022-10-12T20:40:00,pth,1.20
2022-10-12T20:41:00,pth,1.20
2022-10-12T20:43:00,pth,1.20
2022-10-12T20:45:00,pth,2.40
2022-10-12T20:46:00,pth,1.20
2022-10-12T20:47:00,pth,1.20
2022-10-12T20:49:00,pth,3.60
2022-10-12T20:50:00,pth,1.20
2022-10-12T20:52:00,pth,2.40
2022-10-12T20:53:00,pth,1.20
2022-10-12T20:55:00,pth,3.60
2022-10-12T20:57:00,pth,2.40
2022-10-12T20:59:00,pth,3.60
2022-10-12T21:00:00,pth,1.20
2022-10-12T21:02:00,pth,3.60
2022-10-12T21:04:00,pth,2.40
2022-10-12T21:05:00,pth,1.20
2022-10-12T21:07:00,pth,3.60
2022-10-12T21:09:00,pth,2.40
2022-10-12T21:11:00,pth,2.40
2022-10-12T21:13:00,pth,2.40
2022-10-12T21:15:00,pth,2.40
2022-10-12T21:17:00,pth,2.40
2022-10-12T21:19:00,pth,2.40
2022-10-12T21:21:00,pth,3.60
2022-10-12T21:23:00,pth,2.40
2022-10-12T21:24:00,pth,2.40
2022-10-12T21:26:00,pth,2.40
2022-10-12T21:28:00,pth,3.60
2022-10-12T21:30:00,pth,2.40
2022-10-12T21:32:00,pth,3.60
2022-10-12T21:33:00,pth,2.40
2022-10-12T21:35:00,pth,2.40
2022-10-12T21:37:00,pth,2.40
2022-10-12T21:39:00,pth,2.40
2022-10-12T21:41:00,pth,3.60
2022-10-12T21:43:00,pth,2.40
2022-10-12T21:45:00,pth,2.40
2022-10-12T21:47:00,pth,2.40
2022-10-12T21:49:00,pth,3.60
2022-10-12T21:51:00,pth,2.40
2022-10-12T21:53:00,pth,3.60
2022-10-12T21:55:00,pth,3.60
2022-10-12T21:57:00,pth,2.40
2022-10-12T21:59:00,pth,3.60
2022-10-12T22:01:00,pth,2.40
2022-10-12T22:03:00,pth,2.40
2022-10-12T22:05:00,pth,2.40
2022-10-12T22:06:00,pth,1.20
2022-10-12T22:08:00,pth,3.60
2022-10-12T22:10:00,pth,2.40
2022-10-12T22:12:00,pth,10.80
2022-10-12T22:13:00,pth,7.20
2022-10-12T22:15:00,pth,14.40
2022-10-12T22:17:00,pth,13.20
2022-10-12T22:18:00,pth,7.20
2022-10-12T22:20:00,pth,14.40
2022-10-12T22:22:00,pth,13.20
2022-10-12T22:24:00,pth,14.40
2022-10-12T22:25:00,pth,7.20
2022-10-12T22:27:00,pth,13.20
2022-10-12T22:28:00,pth,7.20
2022-10-12T22:29:00,pth,7.20
2022-10-12T22:31:00,pth,8.40
2022-10-12T22:33:00,pth,13.20
2022-10-12T22:35:00,pth,9.60
2022-10-12T22:37:00,pth,9.60
2022-10-12T22:39:00,pth,12.00
2022-10-12T22:41:00,pth,7.20
2022-10-12T22:43:00,pth,7.20
2022-10-12T22:45:00,pth,9.60
2022-10-12T22:47:00,pth,9.60
2022-10-12T22:48:00,pth,2.40
2022-10-12T22:50:00,pth,10.80
2022-10-12T22:51:00,pth,1.20
2022-10-12T22:53:00,pth,9.60
2022-10-12T22:55:00,pth,7.20
2022-10-12T22:56:00,pth,4.80
2022-10-12T22:58:00,pth,7.20
2022-10-12T23:00:00,pth,6.00
2022-10-12T23:02:00,pth,8.40
2022-10-12T23:03:00,pth,3.60
2022-10-12T23:05:00,pth,8.40
2022-10-12T23:06:00,pth,3.60
2022-10-12T23:08:00,pth,7.20
2022-10-12T23:09:00,pth,2.40
2022-10-12T23:10:00,pth,1.20
2022-10-12T23:12:00,pth,3.60
2022-10-12T23:14:00,pth,3.60
2022-10-12T23:16:00,pth,3.60
